[[{"header":{"parameterUnit":"m.s-1","parameterCategory":1,"la1":30.2992,"la2":30.254,"lo1":-89.0895,"lo2":-89.0443,"dy":0.0025,"dx":0.0025,"nx":19,"ny":19,"refTime":"2026-04-17T09:00:00:Z","depth":0,"parameterNumber":2,"parameterNumberName":"U-component_of_WINDS"},"data":[0,0,0,-0.8913,-0.891,-0.8794,-0.8793,-0.8667,-0.8666,0,0,0,0,0,0,0,0,0,0,0,-0.8962,-0.8961,-0.8913,-0.891,-0.8794,-0.8793,-0.8667,-0.8666,0,0,0,0,0,0,0,0,0,0,0,-0.8962,-0.8961,-0.8961,-0.891,-0.8794,-0.8793,-0.8668,-0.8747,0,0,0,0,0,0,0,0,0,0,-0.8856,-0.8916,-0.8962,-0.8961,-0.8909,-0.8794,-0.8793,-0.875,-0.8742,-0.873,0,-0.8724,0,-0.8693,-0.8659,-0.8659,0,0,0,-0.8899,-0.8923,-0.8879,-0.8961,-0.8908,-0.8794,-0.8843,-0.8745,-0.8736,-0.8719,-0.8722,-0.8717,-0.8691,-0.8659,-0.8658,-0.863,-0.863,0,0,-0.8905,-0.8948,-0.8885,-0.8873,-0.8894,-0.8847,-0.884,-0.8739,-0.8745,-0.8721,-0.8713,-0.8689,-0.8658,-0.8657,-0.8629,-0.863,0,0,0,-0.8932,-0.8953,-0.8911,-0.8879,-0.8857,-0.8844,-0.8836,-0.8749,-0.8732,-0.8712,-0.8688,-0.8657,-0.8656,-0.8629,-0.8629,-0.8692,0,0,0,-0.8935,-0.8968,-0.8914,-0.8939,-0.8859,-0.8802,-0.8848,-0.8739,-0.8726,-0.8688,-0.8657,-0.8655,-0.8628,-0.8629,-0.8689,-0.8713,0,0,0,-0.8964,-0.8971,-0.896,-0.8942,-0.8893,-0.8802,-0.8779,-0.8735,-0.8712,-0.8659,-0.8655,-0.8628,-0.8629,-0.8686,-0.8709,-0.8719,0,0,0,-0.9008,-0.9015,-0.8962,-0.8961,-0.8895,-0.8842,-0.8779,-0.8737,-0.8699,-0.8657,-0.8628,-0.8629,-0.8686,-0.8706,-0.8717,-0.8735,-0.8747,0,0,-0.9041,-0.9021,-0.9017,-0.8966,-0.8934,-0.8856,-0.8833,-0.8756,-0.8711,-0.8659,-0.8658,-0.869,-0.8709,-0.8718,-0.8798,-0.8808,0,0,0,-0.9042,-0.904,-0.9022,-0.8989,-0.8932,-0.8885,-0.8808,-0.878,-0.8734,-0.8694,-0.8695,-0.8705,-0.8708,-0.8715,-0.8723,-0.8724,-0.8634,-0.8634,-0.8634,-0.915,-0.9094,-0.9084,-0.9015,-0.8984,-0.8905,-0.8874,-0.8823,-0.8774,-0.8775,-0.8759,-0.8814,-0.8824,-0.883,-0.8831,-0.8764,-0.8765,-0.8765,-0.8765,-0.9194,-0.9183,-0.912,-0.9088,-0.9029,-0.9001,-0.8927,-0.8893,-0.8859,-0.8821,-0.8822,-0.8786,-0.8842,-0.8841,-0.8769,-0.8768,-0.8768,-0.8767,-0.8767,-0.9258,-0.9243,-0.921,-0.9157,-0.9123,-0.9052,-0.9023,-0.8969,-0.8918,-0.8919,-0.8897,-0.8895,-0.8888,-0.8912,-0.8913,-0.8913,-0.8913,-0.8913,-0.8913,-0.9338,-0.9299,-0.9281,-0.9223,-0.9196,-0.9153,-0.9076,-0.9047,-0.9001,-0.8964,-0.8964,-0.8916,-0.8859,-0.8846,-0.8916,-0.8915,-0.8915,-0.8915,-0.8915,-0.9403,-0.938,-0.9353,-0.9326,-0.9254,-0.9224,-0.9157,-0.9103,-0.9072,-0.9059,-0.9011,-0.8978,-0.8953,-0.8946,-0.8934,-0.9023,-0.9023,-0.9023,-0.9023,-0.9457,-0.944,-0.9401,-0.9361,-0.9316,-0.9253,-0.9225,-0.9166,-0.9101,-0.9078,-0.9057,-0.9038,-0.9033,-0.9011,-0.9002,-0.8991,-0.9092,-0.9092,-0.9092,-0.9494,-0.9471,-0.9456,-0.9394,-0.9335,-0.9285,-0.9257,-0.9213,-0.9135,-0.9094,-0.9059,-0.9056,-0.9024,-0.9016,-0.8974,-0.8962,-0.894,0,0]},{"header":{"parameterUnit":"m.s-1","parameterCategory":1,"la1":30.2992,"la2":30.254,"lo1":-89.0895,"lo2":-89.0443,"dy":0.0025,"dx":0.0025,"nx":19,"ny":19,"refTime":"2026-04-17T09:00:00:Z","depth":0,"parameterNumber":3,"parameterNumberName":"V-component_of_WINDS"},"data":[0,0,0,4.1277,4.1276,4.1197,4.1196,4.109,4.109,0,0,0,0,0,0,0,0,0,0,0,4.1301,4.13,4.1277,4.1276,4.1197,4.1196,4.1091,4.109,0,0,0,0,0,0,0,0,0,0,0,4.1301,4.1301,4.13,4.1275,4.1197,4.1196,4.1091,4.1151,0,0,0,0,0,0,0,0,0,0,4.1228,4.1252,4.1301,4.13,4.1275,4.1197,4.1196,4.1154,4.1147,4.1125,0,4.1109,0,4.1098,4.1082,4.1082,0,0,0,4.1274,4.1257,4.1236,4.13,4.1274,4.1197,4.1232,4.115,4.1143,4.1116,4.1107,4.1103,4.1096,4.1082,4.1081,4.0968,4.0967,0,0,4.1278,4.1286,4.1241,4.1231,4.1247,4.1234,4.1229,4.1146,4.1135,4.1107,4.1101,4.1094,4.1081,4.108,4.0968,4.0968,0,0,0,4.1292,4.1289,4.127,4.1236,4.1222,4.1232,4.1226,4.1139,4.1132,4.11,4.1093,4.1081,4.1079,4.0969,4.0968,4.0955,0,0,0,4.1294,4.1297,4.1272,4.1276,4.1224,4.118,4.1221,4.1138,4.1128,4.1094,4.108,4.1078,4.0969,4.0968,4.0956,4.0946,0,0,0,4.1306,4.1298,4.1288,4.1276,4.1244,4.1181,4.117,4.1136,4.1124,4.1082,4.1078,4.0969,4.0968,4.0957,4.0948,4.0919,0,0,0,4.1319,4.1274,4.1288,4.1234,4.1244,4.1175,4.117,4.1117,4.108,4.108,4.0969,4.0968,4.0958,4.0949,4.0921,4.0897,4.0888,0,0,4.1266,4.1268,4.1236,4.1246,4.1177,4.1186,4.1114,4.107,4.1056,4.0997,4.0994,4.0956,4.0948,4.092,4.0834,4.0827,0,0,0,4.1222,4.1199,4.1179,4.1146,4.1114,4.1085,4.1053,4.1036,4.0987,4.1029,4.0937,4.0932,4.0915,4.0903,4.0897,4.0882,4.0963,4.0963,4.0963,4.1156,4.1146,4.1092,4.1073,4.104,4.1009,4.098,4.0952,4.0948,4.0926,4.0908,4.0859,4.0845,4.084,4.0824,4.0895,4.0895,4.0895,4.0895,4.1077,4.1043,4.1043,4.0991,4.0979,4.0934,4.0901,4.09,4.0854,4.0871,4.0855,4.0873,4.0833,4.0818,4.0894,4.0894,4.0894,4.0894,4.0894,4.1032,4.1015,4.0999,4.0952,4.0915,4.0896,4.0854,4.0843,4.0832,4.0817,4.0797,4.0797,4.0796,4.0809,4.0808,4.0808,4.0808,4.0808,4.0808,4.0992,4.0975,4.0943,4.0908,4.0887,4.0856,4.0825,4.0802,4.0774,4.0769,4.0769,4.0766,4.0832,4.0849,4.0805,4.0806,4.0806,4.0806,4.0806,4.0915,4.0932,4.0882,4.0861,4.082,4.0785,4.0774,4.0728,4.0707,4.0687,4.0689,4.0739,4.0738,4.0743,4.0757,4.0692,4.0692,4.0692,4.0692,4.0878,4.0878,4.0826,4.0793,4.0759,4.0745,4.0687,4.0663,4.0639,4.0625,4.0633,4.065,4.0655,4.0651,4.0658,4.0671,4.0585,4.0585,4.0585,4.083,4.0827,4.0781,4.0763,4.073,4.0701,4.0646,4.0606,4.0582,4.0581,4.0614,4.0618,4.0646,4.0656,4.0654,4.0665,4.0687,0,0]}]]